Temp_Advection
nan nan nan nan nan nan nan nan nan nan nan nan nan nan nan nan nan nan nan nan nan nan nan nan nan nan nan nan nan nan nan nan nan nan nan nan nan nan nan nan nan nan nan nan nan nan nan nan nan
nan -0 -0 -0 -0 0 -0 -0 0 0 -0 0 -0 -0 -0 -0 0 -0 -0 1 0 0 -0 0 0 0 0 0 0 -0 -0 -0 -0 -0 -0 -0 -0 -0 -0 -0 -0 0 0 0 -0 -0 -0 -0 nan
nan 0 -0 -0 0 0 0 -0 -0 0 -0 0 -0 -0 -0 -0 -0 -0 -1 -0 0 0 -0 -0 0 0 0 0 0 0 0 0 -0 -0 -0 0 -0 0 0 0 0 0 0 0 0 0 -0 -0 nan
nan -0 -1 -0 0 0 0 -0 0 -0 0 -0 -0 -0 -0 0 -0 -0 -0 -0 -0 0 -0 -0 -0 -0 -0 0 0 0 0 0 0 0 0 0 0 0 0 -0 -0 -0 -0 -0 -0 -0 -0 0 nan
nan -0 -0 0 0 -0 -0 0 0 0 -0 -0 -0 -0 -0 0 0 0 0 0 -0 -0 -0 -0 -0 -0 -0 -0 0 0 0 -0 0 0 0 0 0 0 0 -0 -0 -0 -0 -0 -0 0 -0 -0 nan
nan -0 0 0 0 -0 0 -0 0 -0 0 -0 -0 -0 0 0 -0 0 0 0 0 -0 -0 -0 0 -0 0 0 0 0 0 -0 -0 0 0 0 0 0 0 -0 -0 -0 -0 -0 -0 -0 -0 -0 nan
nan -0 0 -0 -0 -0 -0 0 0 -0 0 -0 -0 -0 0 1 0 0 0 0 0 0 -0 -0 -0 0 0 0 -0 -0 -0 0 0 0 0 0 0 0 0 -0 -0 -0 0 -0 -0 -0 -0 0 nan
nan -0 0 -0 -0 -0 -0 0 -0 0 0 0 -0 -0 -0 0 0 -0 0 0 0 0 0 -0 -0 0 -0 -0 -0 -0 -0 0 -0 -0 0 0 0 -0 -0 -0 -0 -0 -0 -0 -0 -0 -0 -0 nan
nan -0 -0 -0 -0 -0 0 0 0 0 0 0 0 -0 -0 -1 -0 -0 -1 -0 -0 -0 0 0 -0 0 -0 0 -0 0 0 -0 -0 -0 -0 0 0 0 -0 -0 -0 -0 -0 -0 0 0 0 -0 nan
nan -0 -1 -1 -1 -0 -0 -0 -0 -0 0 0 0 0 1 -0 -0 -0 -1 -1 -1 -0 0 0 0 -0 -0 -0 0 0 0 0 -0 -0 -0 -0 0 0 0 -0 -0 -0 -0 0 0 0 0 0 nan
nan -1 -1 -1 -1 -1 -0 -0 0 -0 -0 -0 -1 -1 -0 -0 0 -0 -0 -0 -0 -0 -0 -0 -0 -0 -0 -0 0 0 0 0 -0 -0 0 0 0 0 0 -0 -0 -0 0 0 0 0 0 -0 nan
nan -2 -1 -1 -0 -0 -0 0 0 -0 -0 0 -0 -1 -1 -0 -0 -0 -0 0 0 -0 -1 -0 -0 -0 0 0 0 -0 -0 -0 0 -0 0 0 -0 -0 0 0 -0 -0 0 0 0 0 0 -0 nan
nan 0 -0 0 -1 -0 0 0 -0 -0 0 1 1 1 -0 -1 -1 -0 0 -0 -0 -0 -0 -0 -0 0 0 -0 -0 -0 -0 0 0 0 0 0 0 -0 -0 -0 -0 -0 0 0 -0 -0 0 0 nan
nan -0 -1 0 -1 0 -0 0 0 -0 -0 -0 -0 0 -0 -1 -0 -1 -1 -0 -1 -0 0 -0 -0 -0 0 -0 -0 -0 0 0 0 -0 -0 0 0 0 0 -0 -0 -0 0 -0 0 0 0 0 nan
nan -0 -1 -0 -0 -0 -1 0 -0 -0 -0 -0 -1 -0 0 0 -1 -1 -1 -0 -0 -0 0 0 -0 -0 -0 -0 -0 -0 0 0 -0 -0 -0 0 0 0 0 -0 -0 -0 0 -0 0 0 0 0 nan
nan -0 -0 -1 -0 -0 -1 0 -0 -0 -0 -0 -1 -1 -0 -0 -1 0 0 0 0 0 -0 0 0 0 -0 -0 -0 -0 -0 -0 -0 0 -0 -0 -0 -0 -0 -0 -0 -0 -0 -0 -0 0 0 0 nan
nan -0 -0 -1 -0 -0 -0 0 0 1 0 -0 -0 -1 -1 -0 -0 -0 0 -0 0 0 0 0 0 0 0 -0 -0 0 -0 0 -0 -0 -0 -0 -0 -0 0 -0 -0 -0 0 -0 -0 -0 0 0 nan
nan 0 -0 -0 -0 -0 0 1 0 1 0 -0 -0 -0 -1 -1 -1 -0 0 0 0 0 0 0 0 0 0 0 0 0 0 0 -0 -0 -0 -0 0 0 0 -0 -0 -0 -0 0 0 -0 0 0 nan
nan 0 -0 -1 -0 0 0 0 -0 0 0 -0 -0 -0 -0 -1 0 1 0 0 0 -0 -0 0 0 0 0 0 0 -0 -0 -0 -0 -0 -0 0 0 0 -0 -0 -0 0 0 -0 0 -0 0 0 nan
nan -0 -0 -1 -0 0 0 0 0 0 -0 -0 -0 -1 -1 -1 -0 -0 -0 -0 -0 -0 0 0 -0 0 -0 -0 -0 -0 -0 0 0 0 0 0 0 0 -0 -0 -0 0 -0 -0 -0 -0 -0 0 nan
nan -0 -0 -0 -0 -0 -0 -0 -0 -0 0 0 -2 -1 -0 -1 0 -0 0 -0 -0 -0 0 0 -0 0 -0 -0 0 0 0 -0 -0 -0 -0 0 0 -0 -0 -0 0 0 -0 -0 -0 -0 -0 -0 nan
nan -1 -0 0 -0 -0 -0 0 -0 -0 -0 -0 0 1 -0 0 0 0 0 -2 -1 0 1 0 0 0 0 0 0 -0 -0 -0 -0 -0 0 0 -0 0 0 0 0 0 -0 0 0 0 0 0 nan
nan 0 -0 -0 -0 -0 -0 -0 -0 -0 0 0 0 -1 -1 -1 -1 1 -1 -1 1 1 1 1 0 0 -0 -0 -0 -0 -0 -0 0 0 0 -0 0 0 0 0 0 0 0 0 -0 -0 0 0 nan
nan -0 -1 -0 0 0 -0 -0 -0 0 -0 -0 -0 -0 -1 -0 1 2 0 1 1 1 1 1 0 0 -0 -0 -0 -0 -0 0 0 0 0 0 0 0 0 0 0 0 -0 -0 0 -0 -0 0 nan
nan -1 -0 0 0 -0 0 0 -0 -0 -1 -1 -1 -1 1 0 1 1 1 0 -0 -0 0 0 -0 -0 -0 -0 -0 0 0 -0 0 0 0 0 -0 -0 0 0 0 0 -0 -0 -0 -0 -0 -0 nan
nan -1 -0 -0 0 0 0 0 -0 -1 -2 -3 -2 -3 -2 -0 1 0 -1 -1 -1 -0 0 -0 -0 -0 -0 -0 -0 0 0 0 0 0 0 0 0 -0 0 0 0 0 -0 -0 -0 -0 0 0 nan
nan -0 -0 -0 0 0 -0 -1 0 -2 -2 -3 -2 -2 -2 -3 -2 -0 1 1 0 -1 -0 -0 0 -0 -0 -0 0 0 0 0 0 0 0 0 0 0 0 0 0 0 -0 -0 0 0 0 -0 nan
nan -0 -0 -0 0 0 -0 -0 -0 -1 -1 -1 -1 -1 -1 0 -1 1 1 0 -1 -0 1 1 1 0 0 1 0 0 0 0 0 0 0 0 0 0 0 0 0 0 0 0 0 -0 0 -0 nan
nan -0 -1 -0 0 0 -0 -0 -0 0 0 -0 -1 -1 0 1 -1 -0 0 -0 0 1 1 1 1 2 2 1 1 0 0 0 1 1 0 -0 -0 0 0 0 0 0 0 0 -0 0 -0 0 nan
nan nan nan nan nan nan nan nan nan nan nan nan nan nan nan nan nan nan nan nan nan nan nan nan nan nan nan nan nan nan nan nan nan nan nan nan nan nan nan nan nan nan nan nan nan nan nan nan nan
Wind_Speed
3 4 2 2 2 5 4 4 2 3 2 1 13 4 5 3 4 3 10 30 26 28 27 24 23 23 23 22 19 18 18 20 20 19 19 18 16 13 10 9 6 6 5 4 5 7 7 7 6
4 5 2 3 5 4 4 4 5 5 7 10 9 8 2 2 3 11 30 25 29 28 26 23 22 21 21 21 20 18 17 17 17 17 17 15 13 11 9 7 6 4 3 4 6 7 8 6 7
0 4 1 4 3 4 2 4 6 11 7 2 3 7 3 6 7 25 31 26 30 27 24 21 21 19 19 19 19 18 17 16 16 16 15 14 13 11 8 7 4 2 3 7 10 8 8 6 9
2 2 6 5 6 6 2 4 8 1 5 7 6 4 5 2 21 24 28 29 28 27 24 23 21 19 18 18 18 18 16 17 16 16 16 14 11 9 7 5 4 5 7 10 9 8 7 7 8
9 5 5 5 2 2 6 12 8 6 2 5 3 2 7 17 8 24 26 30 28 27 26 23 21 19 17 17 16 16 15 15 14 15 14 13 11 9 7 5 6 7 7 8 8 8 7 4 4
6 4 4 3 2 5 7 12 3 2 3 6 7 5 5 8 10 22 23 29 26 26 26 22 21 18 16 15 14 14 14 13 12 12 12 11 10 9 7 6 7 8 7 7 7 5 3 2 1
2 4 3 2 3 1 4 5 6 2 2 2 11 3 3 16 16 19 23 28 25 25 25 23 21 17 16 13 13 13 13 12 11 11 11 11 10 9 9 8 8 8 7 7 5 3 2 2 1
0 3 4 3 3 4 5 9 5 10 4 10 10 6 7 24 22 20 25 27 26 25 23 22 20 17 14 13 13 13 12 11 11 11 11 11 10 10 9 9 8 8 6 4 3 3 1 0 2
7 3 2 7 6 5 5 7 8 6 11 6 10 8 13 31 27 25 28 24 26 25 24 23 19 17 14 14 13 12 12 11 12 12 12 11 12 12 11 10 9 9 7 5 2 3 3 3 3
6 4 6 8 9 6 9 11 13 7 7 4 5 13 30 35 31 29 30 27 28 26 26 23 19 16 14 14 12 11 11 11 13 13 14 14 13 13 12 12 9 6 5 4 6 6 7 5 3
5 6 7 10 24 16 10 8 10 12 6 12 28 32 34 35 33 31 29 25 25 25 25 23 19 17 14 14 12 11 11 12 13 14 16 15 13 13 12 10 7 6 5 6 10 6 8 5 2
4 17 16 8 17 14 8 7 6 18 6 21 31 31 36 39 39 36 32 28 26 25 22 21 21 16 15 14 12 13 14 14 15 17 15 15 14 11 11 11 7 4 4 5 10 8 5 7 1
2 5 11 3 21 20 14 10 2 13 11 26 30 37 37 40 39 37 33 27 24 27 25 24 22 18 18 13 13 15 15 15 16 16 15 14 13 10 7 6 4 1 2 10 11 10 12 4 4
9 10 11 13 14 14 11 3 4 10 23 30 34 40 41 39 42 39 38 32 30 27 28 24 22 21 22 15 15 15 15 17 16 15 15 14 10 7 7 5 4 1 1 5 6 7 1 3 6
9 7 8 7 7 6 11 1 8 24 30 32 31 36 43 42 42 40 38 37 34 30 27 27 22 22 24 19 17 15 17 15 14 16 14 13 10 7 5 6 3 3 3 5 4 1 4 6 6
6 4 6 6 3 9 16 10 7 29 34 31 31 32 36 44 45 42 38 37 36 31 30 29 26 24 25 22 19 16 19 17 15 12 13 13 11 9 9 8 6 4 3 1 3 4 9 5 7
6 2 6 9 5 5 5 8 3 33 30 26 31 35 33 38 42 45 43 38 37 36 31 30 28 26 26 21 20 18 17 16 14 17 15 15 13 11 12 11 7 6 3 0 5 4 7 7 5
2 6 8 6 5 2 4 8 7 27 28 29 30 32 33 34 47 44 45 41 38 37 33 30 29 27 27 22 22 21 17 17 19 20 18 18 14 11 15 13 11 7 5 4 5 5 6 7 7
3 3 6 13 4 5 6 8 10 24 23 24 26 32 31 42 41 40 41 41 37 38 37 33 33 29 30 27 26 25 23 20 21 20 18 17 12 12 17 15 14 10 8 5 4 2 5 5 6
5 4 8 9 4 1 1 8 7 15 27 32 34 35 36 32 35 38 40 41 40 39 38 35 35 33 32 29 28 26 23 23 20 19 20 15 14 10 15 16 15 11 11 9 6 2 5 6 5
9 4 6 4 5 4 4 8 7 8 18 26 34 44 43 34 40 40 43 43 40 40 39 37 36 34 35 32 28 27 24 25 23 23 22 19 17 15 15 18 18 14 10 11 9 6 5 4 4
4 8 7 4 3 2 3 5 6 3 9 11 30 32 39 43 39 41 43 43 44 40 39 36 37 36 35 34 32 30 28 27 28 24 22 19 19 18 17 15 18 17 13 14 11 8 8 9 5
9 2 2 1 3 2 3 4 9 7 9 8 17 28 36 41 46 44 45 42 43 41 40 38 39 38 36 36 34 33 31 27 25 25 22 23 22 20 20 18 16 18 18 15 15 13 10 8 9
3 2 6 5 3 3 3 4 6 10 9 10 8 18 31 38 47 43 41 41 41 40 39 37 40 42 37 36 37 35 34 30 27 27 26 25 26 24 23 21 19 19 20 20 16 13 14 11 9
6 7 4 5 5 5 1 4 1 16 18 16 20 11 17 25 33 40 42 43 43 41 40 41 40 44 41 39 38 37 36 32 29 27 25 27 29 28 26 25 23 20 22 22 21 20 17 15 12
3 7 5 3 1 5 1 5 3 17 25 32 27 28 21 23 34 41 44 44 44 41 40 41 41 41 42 40 39 36 35 35 31 28 26 27 29 30 25 26 24 22 20 24 25 21 18 15 14
2 1 3 6 3 3 3 7 7 26 27 38 38 38 36 26 26 43 45 46 45 41 39 39 40 39 39 39 38 37 36 37 33 30 27 26 27 28 27 26 25 24 23 21 24 24 22 17 17
6 3 4 4 2 3 5 4 7 21 22 22 28 34 39 39 8 23 28 34 42 40 36 36 36 35 32 34 34 35 33 34 33 29 28 28 26 26 28 25 24 26 26 24 23 25 24 23 20
6 4 5 5 4 4 0 1 7 11 9 13 22 26 35 38 25 4 15 17 30 32 33 35 36 33 33 33 31 31 31 31 32 32 29 27 29 28 28 25 25 24 28 27 27 25 24 26 22
5 4 4 5 4 1 3 4 4 7 13 19 22 29 36 37 28 17 4 11 13 20 24 26 27 29 29 31 33 29 27 27 29 29 29 29 29 30 29 29 28 28 26 24 25 25 26 26 25
Wind_Direction
229 356 70 112 46 64 6 30 76 46 37 294 168 188 162 76 155 204 155 161 164 163 161 158 156 159 163 164 161 155 154 154 158 160 158 156 153 152 150 150 150 139 141 121 126 138 139 132 142
233 228 58 90 64 46 355 334 106 116 99 91 91 97 95 106 139 138 152 158 165 164 165 162 158 155 158 164 165 161 160 158 162 168 165 167 165 165 162 165 154 149 166 152 149 137 120 118 143
89 18 65 84 90 54 24 292 145 118 109 224 118 76 62 146 158 155 158 158 166 166 166 165 164 162 165 159 158 161 166 164 166 174 171 172 169 172 171 164 159 145 149 139 141 137 136 129 137
308 352 65 68 38 44 3 273 299 13 111 93 58 54 73 316 141 156 159 162 168 165 165 163 164 162 165 166 165 160 167 165 172 174 172 172 177 172 164 155 138 126 123 124 128 134 135 139 152
5 27 52 99 85 183 237 189 255 301 356 66 103 137 97 132 141 159 162 169 170 163 164 166 164 164 162 163 170 165 171 166 171 179 176 178 173 169 169 157 143 139 131 125 128 134 146 149 160
9 41 51 51 163 204 262 285 126 161 62 112 112 107 126 197 181 164 171 171 173 167 166 169 165 166 165 167 174 167 168 165 168 177 175 171 174 168 158 151 147 140 130 122 119 115 116 133 150
52 80 100 192 210 247 259 247 297 263 152 113 150 64 134 163 169 164 170 170 172 170 170 172 165 167 168 169 174 168 165 168 168 172 164 157 159 152 143 140 138 133 130 121 107 90 53 13 298
197 86 125 231 239 246 205 167 239 195 222 147 171 162 167 166 161 166 169 171 175 173 174 175 171 170 170 169 174 170 166 171 165 165 155 147 146 138 128 124 122 126 119 110 96 77 211 239 245
164 58 280 190 193 249 199 191 191 213 171 183 201 201 197 162 170 165 165 175 181 176 178 180 177 176 175 173 173 171 168 172 163 163 151 142 137 127 119 111 110 109 104 88 35 2 338 311 301
150 156 235 188 172 209 209 196 165 148 181 212 169 166 158 171 176 171 171 177 181 183 179 184 184 183 177 175 180 170 175 174 167 162 147 137 131 126 122 120 122 108 86 55 25 357 327 310 291
192 220 221 213 191 203 198 230 190 153 227 201 158 164 171 181 183 182 183 185 183 185 183 187 188 182 180 177 181 177 181 175 169 157 139 134 130 124 125 122 114 107 80 26 0 323 351 283 198
200 238 248 155 195 169 193 188 188 182 252 192 178 177 179 188 190 191 190 190 186 186 186 192 191 190 184 184 189 181 184 176 173 163 155 143 140 127 114 116 117 111 64 10 6 14 320 7 115
56 339 293 333 173 180 195 193 214 201 171 169 174 180 184 192 194 197 197 196 189 186 179 185 189 189 180 171 175 180 178 175 165 159 159 157 150 142 126 125 176 126 70 57 54 32 23 54 154
308 309 305 298 167 170 162 201 179 174 163 168 174 185 189 194 198 198 199 199 197 193 183 186 189 190 184 169 162 166 166 166 177 172 161 158 157 157 140 143 167 177 40 6 317 1 158 81 56
324 354 334 276 160 170 147 308 222 175 178 181 180 189 197 202 202 208 209 204 201 198 191 191 191 187 184 177 172 173 172 173 172 180 181 180 173 183 192 202 217 259 283 25 358 306 66 88 99
8 38 6 294 259 203 162 264 214 180 180 192 192 192 200 209 212 211 215 211 205 200 199 194 192 191 188 188 180 183 182 176 177 185 187 181 181 191 208 216 223 248 266 107 104 56 44 42 71
3 313 316 320 204 114 190 251 148 180 186 192 195 201 203 213 218 219 218 215 211 207 201 200 200 197 194 194 192 190 189 186 185 191 186 183 198 206 217 219 228 214 175 272 138 98 45 67 39
295 330 313 268 285 178 242 258 169 185 188 204 199 206 211 213 223 220 221 219 216 212 205 205 206 205 201 197 197 195 196 197 197 201 204 203 202 224 225 226 215 210 205 143 133 96 108 57 43
233 229 263 281 273 250 248 261 184 196 205 206 208 203 209 214 225 222 222 222 219 214 208 209 206 206 204 201 200 202 205 204 201 202 204 203 210 225 210 220 207 211 210 203 197 103 122 81 71
207 278 283 270 344 211 213 275 240 192 214 207 207 213 216 222 214 217 219 221 219 219 215 210 208 208 205 207 208 214 214 220 216 207 207 205 207 225 215 217 211 216 216 201 199 207 161 110 85
279 209 254 228 329 358 356 298 270 212 217 219 222 226 222 224 219 216 217 220 221 221 219 215 212 211 210 212 212 214 218 218 212 213 214 215 217 224 217 223 221 222 215 209 210 201 195 169 130
264 236 234 286 60 278 62 279 307 245 216 217 228 222 222 221 222 219 215 218 221 223 224 222 215 214 214 216 216 217 218 216 220 223 224 221 215 217 219 224 221 222 220 213 210 209 215 197 186
227 97 96 347 90 35 341 55 267 353 312 263 238 218 217 219 217 220 217 219 222 222 220 223 218 217 218 218 219 221 224 229 230 226 229 232 225 222 226 226 225 228 226 220 220 219 221 220 215
62 43 37 54 69 33 267 124 303 351 309 312 326 215 212 211 217 222 222 220 222 221 220 222 222 220 222 222 223 224 228 231 230 229 233 234 230 228 226 228 232 233 232 229 230 225 223 231 237
77 54 352 354 13 219 185 61 340 5 7 32 26 350 238 229 221 218 218 217 218 220 220 220 222 222 223 225 226 228 230 236 239 238 240 235 233 230 230 229 231 232 233 236 238 239 240 242 245
69 139 149 248 222 272 124 88 69 13 6 17 28 15 18 241 224 224 222 218 220 219 220 220 222 221 223 226 228 231 234 236 242 244 246 240 237 236 237 236 236 235 239 237 237 238 242 238 236
184 140 179 104 28 24 324 339 284 1 4 2 357 6 6 351 242 230 224 222 220 221 223 222 223 224 226 228 230 232 234 237 241 242 245 244 242 245 242 239 239 238 236 237 234 237 237 238 226
100 143 37 12 67 345 354 69 328 347 346 347 353 0 0 10 296 229 224 220 222 224 225 224 227 229 229 231 235 237 239 243 247 249 250 248 245 243 243 245 246 245 238 234 233 234 235 236 236
13 14 47 111 125 162 21 319 346 330 336 336 339 358 12 21 27 310 232 222 224 227 232 235 235 234 236 236 238 240 243 245 247 250 251 250 242 244 246 250 252 249 245 239 234 232 237 235 236
81 39 109 110 283 90 134 214 1 333 339 356 352 357 19 28 29 28 216 229 230 231 237 240 243 248 248 251 248 245 248 249 249 249 250 248 247 246 249 247 251 247 249 247 237 236 235 232 234
Height
1511 1512 1510 1513 1520 1520 1525 1519 1508 1512 1512 1511 1512 1512 1513 1515 1516 1532 1522 1527 1533 1537 1543 1546 1549 1552 1555 1557 1559 1560 1562 1563 1565 1567 1568 1571 1573 1573 1574 1574 1574 1575 1575 1575 1574 1575 1575 1576 1577
1511 1512 1512 1512 1530 1540 1536 1517 1515 1508 1511 1512 1512 1513 1514 1518 1517 1518 1523 1528 1534 1538 1543 1547 1550 1553 1556 1558 1560 1561 1563 1564 1567 1568 1569 1572 1573 1574 1574 1574 1574 1574 1574 1575 1575 1576 1576 1577 1578
1513 1513 1513 1519 1537 1545 1539 1520 1511 1512 1512 1512 1514 1514 1515 1516 1517 1519 1524 1527 1534 1539 1544 1547 1551 1553 1556 1559 1561 1562 1564 1566 1568 1569 1570 1572 1573 1574 1574 1574 1574 1574 1574 1575 1576 1577 1577 1578 1578
1515 1514 1516 1529 1538 1536 1528 1522 1520 1513 1513 1513 1515 1516 1517 1519 1518 1521 1525 1529 1535 1539 1544 1547 1551 1554 1556 1559 1561 1563 1565 1566 1568 1569 1571 1572 1573 1574 1574 1574 1574 1575 1576 1576 1577 1578 1578 1578 1579
1515 1514 1525 1539 1537 1531 1520 1517 1516 1518 1516 1514 1516 1518 1520 1521 1523 1524 1527 1531 1537 1541 1545 1548 1551 1554 1557 1560 1561 1563 1565 1566 1568 1569 1570 1571 1572 1573 1574 1574 1575 1575 1576 1577 1578 1579 1580 1581 1581
1517 1521 1537 1544 1538 1524 1518 1518 1516 1518 1516 1515 1517 1519 1523 1523 1525 1527 1529 1534 1539 1541 1546 1549 1552 1554 1558 1560 1562 1564 1565 1566 1568 1569 1570 1571 1571 1572 1573 1575 1575 1576 1576 1578 1578 1579 1580 1580 1581
1519 1526 1539 1536 1531 1526 1518 1515 1521 1517 1516 1516 1518 1523 1524 1523 1527 1529 1532 1537 1541 1544 1547 1550 1553 1555 1558 1560 1562 1564 1566 1566 1568 1569 1569 1570 1570 1572 1573 1575 1576 1576 1576 1577 1578 1578 1579 1580 1579
1520 1522 1535 1529 1528 1522 1511 1512 1514 1516 1517 1515 1516 1519 1524 1523 1526 1530 1535 1539 1542 1545 1548 1551 1554 1555 1557 1560 1562 1564 1566 1567 1569 1570 1569 1570 1571 1572 1574 1576 1578 1578 1577 1578 1578 1579 1577 1577 1578
1520 1530 1536 1528 1524 1515 1510 1510 1512 1514 1515 1514 1514 1513 1514 1522 1526 1531 1536 1540 1543 1545 1548 1551 1553 1555 1558 1560 1562 1564 1565 1568 1569 1570 1570 1571 1573 1573 1575 1577 1579 1579 1578 1579 1578 1578 1577 1576 1577
1518 1529 1522 1509 1508 1508 1505 1509 1511 1514 1516 1514 1514 1514 1517 1521 1525 1530 1534 1537 1542 1545 1548 1550 1554 1556 1558 1560 1562 1563 1565 1568 1569 1570 1571 1573 1574 1575 1576 1577 1579 1579 1580 1579 1579 1577 1576 1575 1575
1516 1519 1505 1503 1501 1503 1506 1506 1511 1513 1515 1510 1511 1514 1518 1522 1526 1529 1533 1534 1537 1543 1548 1551 1553 1556 1558 1560 1561 1563 1565 1568 1569 1571 1572 1574 1575 1576 1577 1578 1579 1580 1580 1580 1578 1575 1573 1572 1574
1514 1505 1502 1500 1501 1504 1506 1506 1507 1510 1507 1506 1509 1512 1518 1521 1524 1528 1532 1534 1537 1542 1546 1550 1552 1555 1557 1559 1560 1562 1565 1567 1569 1570 1572 1574 1576 1577 1578 1578 1578 1579 1580 1580 1578 1574 1572 1571 1572
1507 1504 1502 1498 1500 1502 1506 1505 1506 1509 1507 1510 1512 1513 1515 1520 1522 1526 1531 1535 1538 1540 1543 1547 1551 1554 1556 1558 1560 1562 1564 1567 1569 1569 1571 1574 1575 1577 1578 1579 1578 1578 1580 1579 1579 1576 1573 1571 1571
1506 1503 1501 1497 1500 1500 1504 1507 1507 1508 1508 1509 1509 1511 1513 1514 1519 1525 1528 1532 1535 1539 1540 1545 1549 1552 1555 1558 1560 1562 1564 1567 1569 1570 1571 1573 1575 1576 1577 1578 1578 1578 1579 1580 1579 1578 1574 1572 1572
1505 1505 1498 1493 1496 1498 1501 1510 1504 1501 1504 1506 1509 1512 1512 1513 1517 1517 1522 1527 1531 1536 1539 1542 1546 1550 1553 1557 1560 1562 1564 1566 1568 1570 1571 1573 1574 1575 1576 1577 1577 1577 1579 1579 1579 1579 1576 1572 1571
1508 1508 1520 1495 1492 1491 1498 1512 1495 1500 1500 1502 1507 1509 1511 1513 1511 1515 1520 1526 1531 1536 1538 1541 1545 1548 1552 1555 1559 1561 1563 1565 1567 1568 1570 1572 1574 1575 1575 1576 1577 1577 1578 1579 1579 1579 1577 1575 1575
1522 1532 1522 1509 1489 1493 1498 1501 1493 1497 1499 1502 1503 1505 1508 1510 1512 1516 1518 1522 1527 1532 1536 1540 1543 1545 1550 1553 1557 1560 1562 1564 1566 1567 1569 1572 1573 1575 1575 1576 1576 1577 1578 1578 1578 1579 1577 1576 1575
1533 1532 1520 1521 1495 1493 1496 1496 1494 1495 1496 1497 1499 1501 1505 1507 1504 1508 1514 1519 1524 1529 1534 1538 1541 1545 1549 1553 1556 1558 1561 1564 1566 1566 1568 1570 1572 1573 1574 1574 1575 1575 1576 1577 1578 1578 1577 1576 1575
1522 1526 1528 1509 1498 1497 1498 1496 1493 1493 1496 1497 1497 1498 1499 1499 1503 1508 1511 1516 1522 1526 1531 1534 1538 1542 1546 1550 1554 1556 1557 1560 1563 1565 1567 1568 1569 1570 1571 1573 1574 1574 1574 1574 1575 1576 1577 1576 1576
1522 1524 1522 1506 1494 1496 1495 1495 1487 1489 1487 1487 1488 1490 1491 1495 1500 1503 1506 1511 1515 1519 1525 1531 1535 1539 1543 1547 1551 1555 1557 1558 1561 1564 1566 1566 1567 1569 1570 1571 1573 1574 1574 1573 1573 1574 1575 1576 1575
1515 1520 1515 1511 1501 1497 1499 1504 1489 1483 1482 1484 1483 1478 1484 1488 1492 1495 1499 1504 1511 1516 1520 1525 1531 1536 1540 1545 1549 1552 1555 1557 1558 1560 1562 1564 1565 1567 1569 1569 1571 1573 1573 1573 1573 1573 1574 1574 1575
1525 1500 1504 1504 1513 1529 1504 1536 1495 1483 1484 1478 1475 1475 1476 1483 1489 1493 1497 1500 1505 1511 1518 1523 1528 1532 1536 1541 1545 1547 1550 1552 1556 1558 1561 1562 1564 1565 1566 1567 1568 1570 1571 1572 1572 1572 1573 1573 1573
1508 1495 1499 1502 1513 1514 1515 1531 1502 1486 1481 1473 1468 1468 1471 1475 1481 1484 1490 1495 1501 1509 1515 1520 1525 1528 1532 1536 1540 1544 1547 1550 1553 1556 1558 1559 1561 1563 1564 1564 1566 1567 1569 1570 1571 1571 1571 1572 1572
1493 1499 1507 1517 1524 1543 1519 1523 1515 1506 1491 1476 1467 1465 1468 1473 1477 1481 1488 1495 1500 1506 1512 1516 1520 1524 1528 1532 1535 1539 1542 1546 1550 1552 1554 1556 1557 1559 1560 1561 1562 1564 1565 1567 1569 1569 1570 1570 1570
1499 1520 1551 1547 1554 1547 1520 1528 1531 1508 1498 1489 1479 1478 1477 1480 1480 1480 1483 1488 1494 1500 1505 1511 1514 1518 1522 1526 1530 1534 1537 1542 1544 1548 1549 1551 1553 1554 1555 1557 1559 1560 1562 1563 1566 1567 1567 1568 1569
1503 1515 1548 1549 1558 1546 1522 1527 1535 1516 1509 1496 1491 1486 1480 1479 1476 1478 1481 1485 1489 1495 1499 1504 1508 1512 1517 1521 1524 1528 1532 1536 1540 1544 1546 1547 1549 1550 1553 1555 1556 1557 1558 1559 1561 1563 1564 1565 1566
1503 1517 1511 1537 1544 1549 1536 1520 1504 1511 1508 1500 1494 1483 1482 1478 1474 1473 1474 1480 1485 1491 1495 1498 1503 1508 1513 1516 1520 1523 1527 1530 1533 1537 1541 1544 1547 1549 1551 1553 1554 1554 1555 1556 1557 1559 1560 1561 1563
1497 1504 1526 1538 1550 1546 1543 1547 1552 1532 1525 1518 1504 1496 1486 1477 1471 1478 1482 1486 1488 1489 1493 1498 1500 1504 1508 1513 1518 1521 1525 1528 1532 1536 1539 1542 1544 1545 1547 1548 1551 1552 1552 1553 1553 1554 1557 1558 1560
1512 1519 1523 1531 1543 1554 1561 1565 1545 1542 1537 1531 1519 1507 1495 1490 1484 1485 1488 1490 1492 1496 1499 1503 1504 1505 1508 1512 1516 1520 1522 1525 1528 1530 1533 1535 1536 1538 1540 1543 1546 1549 1549 1548 1549 1550 1552 1554 1556
1510 1517 1526 1543 1540 1548 1551 1565 1543 1539 1534 1526 1517 1507 1500 1496 1495 1491 1490 1493 1495 1496 1501 1504 1508 1511 1512 1516 1518 1517 1520 1523 1524 1525 1526 1528 1530 1533 1534 1536 1538 1540 1542 1544 1544 1545 1547 1549 1552